Location: Unspecified
(12.6500°N, 0.0000°E)
Time: 05:41:09
(UTC+00:00)

OTV 5 (USA 277) - Visible Passes

Search period start: 20 October 2019 00:00
Search period end: 30 October 2019 00:00
Orbit: 310 x 324 km, 54.5° (Epoch: 17 October)

Date Brightness Start Highest point End Pass type
(mag) Time Alt. Az. Time Alt. Az. Time Alt. Az.
22 Oct ? 18:38:13 10° S 18:39:54 24° SSE 18:39:54 24° SSE visible
23 Oct ? 18:52:26 10° SW 18:55:02 46° WNW 18:55:06 46° NW visible
24 Oct ? 04:33:59 10° NNE 04:35:34 14° NE 04:37:09 10° E visible
24 Oct ? 19:08:50 10° WNW 19:09:36 11° NW 19:10:14 10° NW visible
25 Oct ? 04:49:04 32° NNW 04:50:07 69° ENE 04:52:47 10° SE visible
26 Oct ? 05:04:15 20° WSW 05:04:33 20° WSW 05:06:38 10° S visible
26 Oct ? 18:02:16 10° WSW 18:04:24 21° NW 18:06:33 10° N visible
